Waarnemingen

Advertentie
Mijn weer
Bournemouth Airport, Groot Brittannië (3862): temperatuur & dauwpunt: 20.05.2018 09:00:00 - 26.05.2018 09:00:00 (BST)Bournemouth Airport, Groot Brittannië (3862): temperatuur -20cm & temperatuur -100cm: 20.05.2018 09:00:00 - 26.05.2018 09:00:00 (BST)Bournemouth Airport, Groot Brittannië (3862): windsnelheid: 20.05.2018 09:00:00 - 26.05.2018 09:00:00 (BST)Bournemouth Airport, Groot Brittannië (3862): windrichting: 20.05.2018 09:00:00 - 26.05.2018 09:00:00 (BST)Bournemouth Airport, Groot Brittannië (3862): luchtdruk: 20.05.2018 09:00:00 - 26.05.2018 09:00:00 (BST)Bournemouth Airport, Groot Brittannië (3862): zicht: 20.05.2018 09:00:00 - 26.05.2018 09:00:00 (BST)Bournemouth Airport, Groot Brittannië (3862): Zonneschijnduur: 20.05.2018 09:00:00 - 26.05.2018 09:00:00 (BST)Bournemouth Airport, Groot Brittannië (3862): neerslag: 20.05.2018 09:00:00 - 26.05.2018 09:00:00 (BST)
Datum & Tijd tt [°C] td [°C] tt -20cm [°C] tt -100cm [°C] ff [km/u] ff [kn] dd ppp [hPa] vv [km] sd [min] rr [mm]
26.05.2018 09:00:00 - - - - - - - - - - -
26.05.2018 08:00:00 14,9 13,9 - - 21 11 NO 1018,4 3,5 0 0,0
26.05.2018 07:00:00 14,4 13,9 - - 8 4 N 1018,7 2,5 0 0,2
26.05.2018 06:00:00 14,0 13,5 - - 11 6 NNO 1018,6 2,3 0 0,0
26.05.2018 05:00:00 13,5 13,0 - - 11 6 NNO 1018,4 2,8 0 0,0
26.05.2018 04:00:00 12,9 12,5 - - 8 4 N 1018,6 3,1 0 0,0
26.05.2018 03:00:00 12,6 12,2 - - 8 4 NNO 1018,7 3,4 0 0,0
26.05.2018 02:00:00 11,8 11,1 - - 11 6 N 1018,8 3,4 0 0,0
26.05.2018 01:00:00 13,4 12,4 - - 5 3 NO 1019,3 5 - 0,0
26.05.2018 00:00:00 14,0 13,3 - - 4 2 NNO 1019,1 6 0 0,0
25.05.2018 23:00:00 13,8 12,9 - - 4 2 N 1018,7 6 0 0,0
25.05.2018 22:00:00 14,0 12,3 - - 4 2 NO 1018,6 7 0 0,0
25.05.2018 21:00:00 14,8 12,4 - - 4 2 ONO 1018,3 7 0 0,0
25.05.2018 20:00:00 15,3 12,1 - - 5 3 Z 1017,9 6 12 0,0
25.05.2018 19:00:00 17,8 13,4 - - 5 3 Z 1017,6 7 60 0,0
25.05.2018 18:00:00 17,6 13,2 - - 9 5 Z 1017,4 6 60 0,0
25.05.2018 17:00:00 17,4 13,3 - - 11 6 ZZO 1017,6 6 54 0,0
25.05.2018 16:00:00 19,0 13,7 - - 11 6 Z 1017,6 10 48 0,0
25.05.2018 15:00:00 19,4 13,8 - - 8 4 Z 1017,6 10 12 0,0
25.05.2018 14:00:00 19,0 13,5 - - 5 3 - 1017,6 10 6 0,0
25.05.2018 13:00:00 19,9 13,0 - - 5 3 - 1017,6 10 36 0,0
25.05.2018 12:00:00 18,7 13,4 - - 8 4 N 1017,7 10 36 0,0
25.05.2018 11:00:00 17,3 13,0 - - 9 5 NNW 1017,9 10 42 0,0
25.05.2018 10:00:00 16,9 12,5 15,7 13,2 8 4 NNW 1018,0 10 36 0,0
25.05.2018 09:00:00 15,6 12,6 - - 11 6 NNO 1018,1 10 48 0,0
25.05.2018 08:00:00 15,4 12,8 - - 13 7 NNO 1017,9 10 42 0,0
25.05.2018 07:00:00 13,8 13,2 - - 8 4 - 1017,7 5 0 0,0
25.05.2018 06:00:00 12,7 12,3 - - 4 2 - 1017,7 4,0 0 0,0
25.05.2018 05:00:00 13,4 13,1 - - 8 4 N 1017,6 5 0 0,0
25.05.2018 04:00:00 13,3 13,1 - - 5 3 NNW 1017,7 3,5 0 0,0
25.05.2018 03:00:00 13,3 13,1 - - 4 2 NNW 1017,7 4,2 0 0,0
25.05.2018 02:00:00 13,2 13,0 - - 4 2 NW 1017,9 3,7 0 0,0
25.05.2018 01:00:00 12,8 12,5 - - 5 3 NW 1018,1 0,5 - 0,0
25.05.2018 00:00:00 13,1 12,7 - - 8 4 NNW 1018,3 2,1 0 0,0
24.05.2018 23:00:00 14,0 13,5 - - 9 5 N 1018,5 3,7 0 0,0
24.05.2018 22:00:00 14,1 13,5 - - 8 4 N 1018,9 3,0 0 0,0
24.05.2018 21:00:00 14,1 13,5 - - 8 4 NNW 1018,6 3,0 0 0,0
24.05.2018 20:00:00 14,3 13,6 - - 9 5 NNW 1018,2 3,0 0 0,0
24.05.2018 19:00:00 14,1 13,3 - - 9 5 N 1018,1 3,5 0 0,0
24.05.2018 18:00:00 14,0 13,2 - - 13 7 NNO 1018,5 4,0 0 0,2
24.05.2018 17:00:00 13,9 13,1 - - 16 9 N 1018,6 3,5 0 0,4
24.05.2018 16:00:00 14,0 12,9 - - 18 10 NNO 1018,9 3,5 0 0,8
24.05.2018 15:00:00 14,0 12,8 - - 11 6 NNO 1019,4 4,0 0 2,4
24.05.2018 14:00:00 14,2 12,5 - - 11 6 NNO 1019,5 4,0 0 1,0
24.05.2018 13:00:00 14,8 12,0 - - 13 7 NNO 1019,8 8 0 0,0
24.05.2018 12:00:00 13,9 11,3 - - 13 7 NO 1020,0 8 0 0,0
24.05.2018 11:00:00 14,2 11,4 - - 16 9 NNO 1020,1 8 0 0,0
24.05.2018 10:00:00 14,2 11,8 16,4 13,0 16 9 NO 1020,3 9 0 0,0
24.05.2018 09:00:00 12,5 10,6 - - 15 8 NNO 1020,6 9 0 0,0
24.05.2018 08:00:00 12,2 10,4 - - 16 9 NNO 1020,3 8 0 0,0
24.05.2018 07:00:00 11,7 10,3 - - 13 7 NNO 1020,3 8 0 0,0
24.05.2018 06:00:00 11,4 9,7 - - 11 6 NNO 1020,4 7 0 0,8
24.05.2018 05:00:00 11,6 9,2 - - 16 9 NNO 1020,5 12 0 0,0
24.05.2018 04:00:00 11,6 9,1 - - 13 7 N 1020,6 12 0 0,0
24.05.2018 03:00:00 11,6 9,1 - - 15 8 NNO 1021,0 12 0 0,0
24.05.2018 02:00:00 12,3 9,5 - - 15 8 NO 1021,4 13 0 0,0
24.05.2018 01:00:00 12,8 9,8 - - 16 9 NO 1021,4 10 - 0,0
24.05.2018 00:00:00 13,9 10,9 - - 16 9 NO 1021,4 10 0 0,0
23.05.2018 23:00:00 14,8 12,2 - - 11 6 NO 1021,7 10 0 0,0
23.05.2018 22:00:00 14,8 12,8 - - 13 7 NO 1021,7 10 0 0,0
23.05.2018 21:00:00 16,8 11,5 - - 22 12 ONO 1021,6 10 0 0,0
23.05.2018 20:00:00 18,8 11,3 - - 8 4 OZO 1021,1 10 0 0,0
23.05.2018 19:00:00 20,3 10,9 - - 18 10 NO 1020,9 10 6 0,0
23.05.2018 18:00:00 21,3 12,0 - - 16 9 NO 1020,8 10 54 0,0
23.05.2018 17:00:00 21,4 11,1 - - 21 11 NO 1020,9 10 60 0,0
23.05.2018 16:00:00 22,4 10,7 - - 21 11 ONO 1021,1 10 60 0,0
23.05.2018 15:00:00 22,7 11,3 - - 22 12 NNO 1021,5 10 60 0,0
23.05.2018 14:00:00 21,1 11,3 - - 21 11 NNO 1021,8 10 60 0,0
23.05.2018 13:00:00 20,2 11,3 - - 18 10 NNO 1022,3 10 60 0,0
23.05.2018 12:00:00 19,1 11,1 - - 22 12 NO 1022,7 10 60 0,0
23.05.2018 11:00:00 16,9 10,5 - - 21 11 NNO 1022,8 10 60 0,0
23.05.2018 10:00:00 15,5 9,6 15,9 13,0 22 12 NNO 1023,0 10 60 0,0
23.05.2018 09:00:00 13,2 9,0 - - 21 11 N 1023,0 10 60 0,0
23.05.2018 08:00:00 11,1 8,2 - - 24 13 NNO 1022,8 10 60 0,0
23.05.2018 07:00:00 9,9 8,0 - - 16 9 NNO 1022,5 10 6 0,0
23.05.2018 06:00:00 9,1 7,6 - - 15 8 N 1021,8 8 0 0,0
23.05.2018 05:00:00 9,3 7,5 - - 11 6 NNO 1021,4 9 0 0,0
23.05.2018 04:00:00 10,4 7,9 - - 16 9 NNO 1021,0 13 0 0,0
23.05.2018 03:00:00 11,2 8,0 - - 15 8 NNO 1020,8 16 0 0,0
23.05.2018 02:00:00 11,5 8,0 - - 15 8 N 1020,8 20 0 0,0
23.05.2018 01:00:00 13,1 7,8 - - 8 4 N 1020,5 22 - 0,0
23.05.2018 00:00:00 14,3 8,5 - - 16 9 NNO 1020,1 23 0 0,0
22.05.2018 23:00:00 15,7 9,1 - - 15 8 NNO 1019,7 10 0 0,0
22.05.2018 22:00:00 16,9 10,2 - - 13 7 NNO 1019,2 10 0 0,0
22.05.2018 21:00:00 18,7 10,2 - - 15 8 NNO 1018,2 10 30 0,0
22.05.2018 20:00:00 20,4 10,9 - - 15 8 NNO 1017,6 10 30 0,0
22.05.2018 19:00:00 22,0 11,7 - - 18 10 NNO 1016,9 10 60 0,0
22.05.2018 18:00:00 22,1 12,0 - - 22 12 NNO 1016,6 10 54 0,0
22.05.2018 17:00:00 22,2 11,3 - - 24 13 N 1016,4 10 48 0,0
22.05.2018 16:00:00 22,1 11,4 - - 22 12 N 1016,4 10 54 0,0
22.05.2018 15:00:00 22,5 10,8 - - 22 12 N 1016,4 10 60 0,0
22.05.2018 14:00:00 22,2 11,5 - - 18 10 N 1016,4 10 60 0,0
22.05.2018 13:00:00 21,6 12,4 - - 22 12 N 1016,4 10 60 0,0
22.05.2018 12:00:00 19,9 10,8 - - 21 11 N 1016,4 10 42 0,0
22.05.2018 11:00:00 18,3 12,2 - - 18 10 N 1016,3 10 30 0,0
22.05.2018 10:00:00 16,8 11,4 15,7 12,7 18 10 N 1016,2 10 6 0,0
22.05.2018 09:00:00 15,4 10,3 - - 16 9 NNO 1016,2 10 54 0,0
22.05.2018 08:00:00 13,7 10,5 - - 16 9 N 1015,9 8 60 0,0
22.05.2018 07:00:00 12,2 10,5 - - 16 9 NNO 1015,5 8 30 0,0
22.05.2018 06:00:00 10,2 9,8 - - 11 6 N 1015,4 9 0 0,0
22.05.2018 05:00:00 10,2 9,9 - - 9 5 N 1014,9 4,6 0 0,0
22.05.2018 04:00:00 9,5 9,3 - - 5 3 N 1014,8 5 0 0,0
22.05.2018 03:00:00 8,5 8,1 - - 9 5 WNW 1014,8 4,7 0 0,0
22.05.2018 02:00:00 9,0 8,7 - - 8 4 WNW 1014,8 5 0 0,0
22.05.2018 01:00:00 9,9 9,5 - - 4 2 WNW 1014,7 5 - 0,0
22.05.2018 00:00:00 11,1 10,7 - - 4 2 WNW 1014,9 6 0 0,0
21.05.2018 23:00:00 11,5 11,0 - - 5 3 NW 1015,0 3,1 0 0,0
21.05.2018 22:00:00 12,7 11,8 - - 5 3 NNW 1015,0 10 0 0,0
21.05.2018 21:00:00 14,2 12,5 - - 5 3 NW 1014,5 10 0 0,0
21.05.2018 20:00:00 15,6 12,8 - - 11 6 NW 1014,7 10 0 0,0
21.05.2018 19:00:00 16,5 13,9 - - 9 5 W 1014,9 10 18 0,0
21.05.2018 18:00:00 15,3 13,5 - - 11 6 ZZO 1014,4 10 0 10,2
21.05.2018 17:00:00 19,5 10,5 - - 15 8 Z 1014,0 10 30 0,0
21.05.2018 16:00:00 20,2 10,6 - - 13 7 ZZO 1014,2 10 30 0,0
21.05.2018 15:00:00 22,0 11,4 - - 13 7 ZZO 1014,6 10 36 0,0
21.05.2018 14:00:00 21,7 10,9 - - 18 10 ZZO 1014,9 10 36 0,0
21.05.2018 13:00:00 21,9 10,2 - - 9 5 O 1015,1 10 42 0,0
21.05.2018 12:00:00 21,6 10,8 - - 13 7 NO 1015,5 10 60 0,0
21.05.2018 11:00:00 20,0 11,7 - - 11 6 ONO 1015,8 9 60 0,0
21.05.2018 10:00:00 18,0 10,7 15,2 12,7 13 7 NNO 1016,3 9 60 0,0
21.05.2018 09:00:00 15,0 10,4 - - 13 7 N 1016,6 8 60 0,0
21.05.2018 08:00:00 11,6 9,4 - - 9 5 N 1017,0 7 60 0,0
21.05.2018 07:00:00 8,6 8,4 - - 5 3 N 1017,1 6 36 0,0
21.05.2018 06:00:00 5,1 4,7 - - 8 4 NNW 1017,1 5 0 0,0
21.05.2018 05:00:00 5,4 5,1 - - 4 2 NNW 1017,1 0,2 0 0,0
21.05.2018 04:00:00 5,6 5,2 - - 5 3 NNW 1017,7 3,5 0 0,0
21.05.2018 03:00:00 5,6 5,0 - - 2 1 NNW 1018,0 6 0 0,0
21.05.2018 02:00:00 6,1 5,2 - - 5 3 NW 1018,5 5 0 0,0
21.05.2018 01:00:00 7,0 6,1 - - 2 1 NW 1019,0 7 - 0,0
21.05.2018 00:00:00 8,0 6,9 - - 4 2 NNW 1019,2 6 0 0,0
20.05.2018 23:00:00 9,4 7,9 - - 4 2 NO 1019,4 8 0 0,0
20.05.2018 22:00:00 9,6 7,3 - - 0 0 N 1019,4 9 0 0,0
20.05.2018 21:00:00 13,0 7,9 - - 0 0 N 1019,2 10 18 0,0
20.05.2018 20:00:00 14,3 8,9 - - 5 3 Z 1019,2 10 60 0,0
20.05.2018 19:00:00 14,6 10,2 - - 9 5 Z 1019,4 10 60 0,0
20.05.2018 18:00:00 15,6 10,7 - - 11 6 Z 1019,7 9 60 0,0
20.05.2018 17:00:00 15,6 11,2 - - 13 7 Z 1020,0 9 60 0,0
20.05.2018 16:00:00 15,1 10,5 - - 13 7 Z 1020,7 10 60 0,0
20.05.2018 15:00:00 15,4 10,8 - - 15 8 Z 1021,4 10 60 0,0
20.05.2018 14:00:00 15,7 10,6 - - 15 8 Z 1022,0 10 60 0,0
20.05.2018 13:00:00 15,9 10,8 - - 15 8 Z 1022,5 10 60 0,0
20.05.2018 12:00:00 15,2 10,9 - - 13 7 ZZO 1022,8 9 60 0,0
20.05.2018 11:00:00 15,0 10,2 - - 8 4 - 1023,0 9 54 0,0
20.05.2018 10:00:00 12,8 9,9 15,2 12,7 5 3 - 1023,4 7 12 0,0
20.05.2018 09:00:00 11,3 11,1 - - 8 4 ZO 1023,3 4,0 0 0,0

tt = temperatuur
td = dauwpunt
tt -20cm = temperatuur -20cm
tt -100cm = temperatuur -100cm
ff = windsnelheid
dd = windrichting
ppp = luchtdruk
vv = zicht
sd = Zonneschijnduur
rr = neerslag

Weerstations in de omgeving